When you browse on this site, cookies collect data to enhance your experience and personalize the content and advertising you see.
Visit our Privacy Policy to learn more. By continuing to use the site, you agree to this use of cookies and data.
  • In Hungary
  • List of Countries
  • For 7 days
  • Water Temperature
  • Weather Map
  • News
  • Weather Widgets
  • user-avatar
    Login

    Hourly Weather Hibiyatl

    Today, 23 October, Wednesday

    Time Temperature Precipitation Wind Pressure Humidity
    00:00 +5°C° 0 mm 0 mps 615 mmHg 84%
    01:00 +4°C° 0 mm 0 mps 615 mmHg 84%
    02:00 +4°C° 0 mm 0 mps 615 mmHg 84%
    03:00 +4°C° 0 mm 0 mps 614 mmHg 84%
    04:00 +5°C° 0 mm 1 mps 614 mmHg 78%
    05:00 +5°C° 0 mm 1 mps 614 mmHg 73%
    06:00 +5°C° 0 mm 1 mps 615 mmHg 67%
    07:00 +7°C° 0 mm 1 mps 616 mmHg 58%
    08:00 +9°C° 0 mm 1 mps 616 mmHg 49%
    09:00 +11°C° 0 mm 1 mps 617 mmHg 39%
    10:00 +12°C° 0 mm 1 mps 618 mmHg 40%
    11:00 +12°C° 0 mm 1 mps 618 mmHg 41%
    12:00 +13°C° 0 mm 2 mps 618 mmHg 42%
    13:00 +13°C° 0 mm 1 mps 618 mmHg 46%
    14:00 +13°C° 0 mm 1 mps 617 mmHg 49%
    15:00 +12°C° 0 mm 1 mps 617 mmHg 52%
    16:00 +11°C° 0 mm 1 mps 616 mmHg 58%
    17:00 +9°C° 0 mm 1 mps 616 mmHg 64%
    18:00 +8°C° 0 mm 1 mps 615 mmHg 70%
    19:00 +7°C° 0 mm 1 mps 615 mmHg 69%
    20:00 +6°C° 0 mm 0 mps 616 mmHg 69%
    21:00 +6°C° 0 mm 0 mps 616 mmHg 69%
    22:00 +6°C° 0 mm 0 mps 616 mmHg 73%
    23:00 +5°C° 0 mm 0 mps 615 mmHg 77%

    Tomorrow, 24 October, Thursday

    Time Temperature Precipitation Wind Pressure Humidity
    00:00 +5°C° 0 mm 0 mps 615 mmHg 80%
    01:00 +5°C° 0 mm 0 mps 615 mmHg 83%
    02:00 +4°C° 0 mm 0 mps 615 mmHg 85%
    03:00 +4°C° 0 mm 0 mps 615 mmHg 88%
    04:00 +4°C° 0 mm 0 mps 615 mmHg 86%
    05:00 +4°C° 0 mm 0 mps 615 mmHg 85%
    06:00 +4°C° 0 mm 1 mps 615 mmHg 84%
    07:00 +6°C° 0 mm 1 mps 615 mmHg 75%
    08:00 +8°C° 0 mm 1 mps 616 mmHg 65%
    09:00 +10°C° 0 mm 1 mps 617 mmHg 56%
    10:00 +11°C° 0 mm 1 mps 617 mmHg 54%
    11:00 +12°C° 0 mm 1 mps 617 mmHg 53%
    12:00 +12°C° 0 mm 2 mps 617 mmHg 51%
    13:00 +12°C° 0 mm 2 mps 617 mmHg 54%
    14:00 +12°C° 0 mm 1 mps 617 mmHg 56%
    15:00 +12°C° 0 mm 1 mps 616 mmHg 59%
    16:00 +10°C° 0 mm 1 mps 616 mmHg 66%
    17:00 +8°C° 0 mm 1 mps 615 mmHg 73%
    18:00 +6°C° 0 mm 0 mps 615 mmHg 80%
    19:00 +5°C° 0 mm 0 mps 615 mmHg 81%
    20:00 +5°C° 0 mm 0 mps 615 mmHg 82%
    21:00 +4°C° 0 mm 0 mps 615 mmHg 83%
    22:00 +5°C° 0 mm 1 mps 614 mmHg 85%
    23:00 +5°C° 0 mm 1 mps 614 mmHg 86%

    Day after tomorrow, 25 October, Friday

    Time Temperature Precipitation Wind Pressure Humidity
    00:00 +5°C° 0 mm 1 mps 614 mmHg 88%
    01:00 +5°C° 0 mm 1 mps 614 mmHg 88%
    02:00 +5°C° 0 mm 1 mps 614 mmHg 88%
    03:00 +4°C° 0 mm 0 mps 614 mmHg 89%
    04:00 +5°C° 0 mm 1 mps 613 mmHg 88%
    05:00 +4°C° 0 mm 1 mps 613 mmHg 87%
    06:00 +4°C° 0 mm 1 mps 613 mmHg 86%
    07:00 +6°C° 0 mm 1 mps 614 mmHg 77%
    08:00 +8°C° 0 mm 1 mps 614 mmHg 68%
    09:00 +10°C° 0 mm 1 mps 615 mmHg 59%
    10:00 +11°C° 0 mm 1 mps 615 mmHg 57%
    11:00 +11°C° 0 mm 1 mps 615 mmHg 55%
    12:00 +12°C° 0 mm 2 mps 616 mmHg 53%
    13:00 +12°C° 0 mm 2 mps 615 mmHg 55%
    14:00 +12°C° 0 mm 1 mps 615 mmHg 57%
    15:00 +12°C° 0 mm 1 mps 615 mmHg 59%
    16:00 +10°C° 0 mm 1 mps 614 mmHg 66%
    17:00 +9°C° 0 mm 1 mps 614 mmHg 74%
    18:00 +6°C° 0 mm 0 mps 613 mmHg 82%
    19:00 +7°C° 0 mm 1 mps 613 mmHg 82%
    20:00 +6°C° 0 mm 1 mps 613 mmHg 83%
    21:00 +6°C° 0 mm 1 mps 613 mmHg 84%
    22:00 +5°C° 0 mm 1 mps 613 mmHg 84%
    23:00 +5°C° 0 mm 1 mps 613 mmHg 84%

    26 October, Saturday

    Time Temperature Precipitation Wind Pressure Humidity
    00:00 +5°C° 0 mm 1 mps 613 mmHg 85%
    01:00 +5°C° 0 mm 1 mps 612 mmHg 83%
    02:00 +4°C° 0 mm 1 mps 612 mmHg 81%
    03:00 +4°C° 0 mm 1 mps 612 mmHg 80%
    04:00 +4°C° 0 mm 1 mps 612 mmHg 78%
    05:00 +4°C° 0 mm 1 mps 612 mmHg 77%
    06:00 +4°C° 0 mm 1 mps 612 mmHg 76%
    07:00 +6°C° 0 mm 1 mps 613 mmHg 70%
    08:00 +8°C° 0 mm 1 mps 614 mmHg 64%
    09:00 +10°C° 0 mm 1 mps 615 mmHg 58%
    10:00 +11°C° 0 mm 1 mps 615 mmHg 56%
    11:00 +11°C° 0 mm 1 mps 616 mmHg 55%
    12:00 +12°C° 0 mm 2 mps 616 mmHg 54%
    13:00 +12°C° 0 mm 2 mps 616 mmHg 56%
    14:00 +12°C° 0 mm 2 mps 615 mmHg 59%
    15:00 +12°C° 0 mm 1 mps 615 mmHg 61%
    16:00 +10°C° 0 mm 1 mps 615 mmHg 69%
    17:00 +8°C° 0 mm 1 mps 614 mmHg 77%
    18:00 +6°C° 0 mm 0 mps 614 mmHg 85%
    19:00 +5°C° 0 mm 0 mps 614 mmHg 86%
    20:00 +5°C° 0 mm 0 mps 614 mmHg 86%
    21:00 +5°C° 0 mm 0 mps 614 mmHg 87%
    22:00 +5°C° 0 mm 0 mps 614 mmHg 87%
    23:00 +4°C° 0 mm 0 mps 613 mmHg 88%

    27 October, Sunday

    Time Temperature Precipitation Wind Pressure Humidity
    00:00 +4°C° 0 mm 0 mps 613 mmHg 88%
    01:00 +4°C° 0 mm 0 mps 613 mmHg 88%
    02:00 +4°C° 0 mm 0 mps 613 mmHg 88%
    03:00 +4°C° 0 mm 0 mps 613 mmHg 88%
    04:00 +4°C° 0 mm 0 mps 613 mmHg 87%
    05:00 +4°C° 0 mm 0 mps 613 mmHg 86%
    06:00 +4°C° 0 mm 1 mps 613 mmHg 85%
    07:00 +6°C° 0 mm 1 mps 614 mmHg 78%
    08:00 +8°C° 0 mm 1 mps 615 mmHg 71%
    09:00 +10°C° 0 mm 1 mps 615 mmHg 64%
    10:00 +10°C° 0 mm 1 mps 615 mmHg 63%
    11:00 +11°C° 0 mm 1 mps 615 mmHg 61%
    12:00 +12°C° 0 mm 2 mps 616 mmHg 60%
    13:00 +10°C° 0.2 mm 2 mps 615 mmHg 64%
    14:00 +11°C° 0.2 mm 1 mps 615 mmHg 67%
    15:00 +10°C° 0.2 mm 1 mps 614 mmHg 71%
    16:00 +9°C° 0.2 mm 1 mps 614 mmHg 76%
    17:00 +8°C° 0.2 mm 1 mps 613 mmHg 82%
    18:00 +7°C° 0.2 mm 1 mps 613 mmHg 87%
    19:00 +7°C° 0.4 mm 1 mps 613 mmHg 88%
    20:00 +7°C° 0.4 mm 1 mps 613 mmHg 89%
    21:00 +6°C° 0.4 mm 1 mps 613 mmHg 90%
    22:00 +6°C° 0.4 mm 1 mps 613 mmHg 91%
    23:00 +6°C° 0.4 mm 1 mps 612 mmHg 92%

    28 October, Monday

    Time Temperature Precipitation Wind Pressure Humidity
    00:00 +5°C° 0.4 mm 0 mps 612 mmHg 93%
    01:00 +5°C° 0.8 mm 0 mps 612 mmHg 94%
    02:00 +5°C° 0.8 mm 0 mps 612 mmHg 94%
    03:00 +5°C° 0.8 mm 0 mps 611 mmHg 95%
    04:00 +4°C° 0.6 mm 0 mps 611 mmHg 95%
    05:00 +5°C° 0.6 mm 1 mps 611 mmHg 95%
    06:00 +5°C° 0.6 mm 1 mps 611 mmHg 95%
    07:00 +6°C° 0.5 mm 1 mps 611 mmHg 93%
    08:00 +6°C° 0.5 mm 1 mps 611 mmHg 91%
    09:00 +7°C° 0.5 mm 1 mps 611 mmHg 89%
    10:00 +7°C° 0.3 mm 1 mps 611 mmHg 87%
    11:00 +8°C° 0.3 mm 1 mps 611 mmHg 84%
    12:00 +8°C° 0.3 mm 1 mps 611 mmHg 82%
    13:00 +8°C° 0.2 mm 1 mps 611 mmHg 81%
    14:00 +8°C° 0.2 mm 1 mps 611 mmHg 81%
    15:00 +7°C° 0.2 mm 0 mps 610 mmHg 80%
    16:00 +7°C° 0.2 mm 1 mps 610 mmHg 82%
    17:00 +6°C° 0.2 mm 1 mps 610 mmHg 85%
    18:00 +6°C° 0.2 mm 1 mps 610 mmHg 87%
    19:00 +5°C° 0 mm 1 mps 610 mmHg 85%
    20:00 +4°C° 0 mm 1 mps 610 mmHg 83%
    21:00 +4°C° 0 mm 1 mps 610 mmHg 81%
    22:00 +4°C° 0 mm 1 mps 610 mmHg 79%
    23:00 +3°C° 0 mm 1 mps 609 mmHg 77%

    29 October, Tuesday

    Time Temperature Precipitation Wind Pressure Humidity
    00:00 +3°C° 0 mm 1 mps 609 mmHg 76%
    01:00 +3°C° 0 mm 1 mps 609 mmHg 76%
    02:00 +3°C° 0 mm 1 mps 609 mmHg 77%
    03:00 +3°C° 0 mm 1 mps 609 mmHg 77%
    04:00 +3°C° 0 mm 1 mps 609 mmHg 76%
    05:00 +3°C° 0 mm 1 mps 609 mmHg 76%
    06:00 +3°C° 0 mm 1 mps 609 mmHg 76%
    07:00 +4°C° 0 mm 1 mps 610 mmHg 70%
    08:00 +6°C° 0 mm 1 mps 611 mmHg 65%
    09:00 +7°C° 0 mm 0 mps 612 mmHg 60%
    10:00 +8°C° 0 mm 0 mps 612 mmHg 57%
    11:00 +10°C° 0 mm 1 mps 612 mmHg 55%
    12:00 +11°C° 0 mm 1 mps 613 mmHg 52%
    13:00 +11°C° 0 mm 1 mps 612 mmHg 53%
    14:00 +11°C° 0 mm 1 mps 612 mmHg 54%
    15:00 +11°C° 0 mm 1 mps 612 mmHg 55%
    16:00 +9°C° 0 mm 1 mps 612 mmHg 62%
    17:00 +7°C° 0 mm 1 mps 611 mmHg 68%
    18:00 +5°C° 0 mm 1 mps 610 mmHg 74%
    19:00 +5°C° 0 mm 1 mps 610 mmHg 73%
    20:00 +5°C° 0 mm 1 mps 610 mmHg 72%
    21:00 +4°C° 0 mm 1 mps 611 mmHg 71%
    22:00 +4°C° 0 mm 1 mps 611 mmHg 73%
    23:00 +4°C° 0 mm 1 mps 611 mmHg 75%
    Show more